User: anonymous   Login
Location: Goheenville
(40.9070°N, 79.3720°W)
Time: 13:44:32
(UTC-04:00)
Language:

Cosmos 1727 Rocket - Orbit

View from above orbital plane
View from above orbital plane
View from above satellite
View from above satellite

Ground track
Ground track

The orbit data is extracted from the following two-line orbital elements,

1 16511U 86008B   15207.54967251 -.00000025  00000-0 -41380-4 0  9999
2 16511 082.9438 012.8238 0025350 056.7457 005.6433 13.75799171481175
Epoch (UTC): 26 July 2015 13:11:31
Eccentricity: 0.0025350
inclination: 82.9438°
perigee height: 960 km
apogee height: 997 km
right ascension of ascending node: 12.8238°
argument of perigee: 56.7457°
revolutions per day: 13.75799171
mean anomaly at epoch: 5.6433°
orbit number at epoch: 48117

The dashed part of the orbit path shows where the satellite is in the earth's shadow,  

DLR